Sigfox identifier Datetime Temperature Humidity SNR
003C468F 2019-02-20 13:58:59 20.8 24 24.3
003C468F 2019-02-20 13:27:27 20.8 25 24.3
003C468F 2019-02-20 12:55:57 20.8 25 23.7
003C468F 2019-02-20 12:24:24 20.8 26 23.7
003C468F 2019-02-20 11:52:53 20.8 26 23.7
003C468F 2019-02-20 11:21:18 20.8 27 22.9
003C468F 2019-02-20 10:49:46 20.8 27 22.9
003C468F 2019-02-20 10:17:30 20.8 27 21.9
003C468F 2019-02-20 09:14:27 20.7 27 20.6
003C468F 2019-02-20 08:42:57 20.7 27 18.8
003C468F 2019-02-20 08:11:24 20.7 27 18.8
003C468F 2019-02-20 07:39:51 20.7 27 18.8
003C468F 2019-02-20 07:08:20 20.7 27 18.8
003C468F 2019-02-20 06:36:48 20.7 27 18.8
003C468F 2019-02-20 06:05:16 20.7 27 18.8
003C468F 2019-02-20 05:33:45 20.7 27 19
003C468F 2019-02-20 04:30:39 20.7 27 19
003C468F 2019-02-20 03:59:08 20.8 27 18.9
003C468F 2019-02-20 03:27:38 20.8 27 18.7
003C468F 2019-02-20 02:56:06 20.8 27 18.7
003C468F 2019-02-20 02:24:34 20.8 27 18.6
003C468F 2019-02-20 01:53:02 20.8 27 18.6
003C468F 2019-02-20 01:21:34 20.8 27 18.6
003C468F 2019-02-20 00:49:59 20.8 27 20.5
003C468F 2019-02-20 00:18:30 20.8 27 20.4
003C468F 2019-02-19 23:46:55 20.8 27 18.4
003C468F 2019-02-19 23:15:23 20.8 27 18.3
003C468F 2019-02-19 22:43:50 20.8 27 18.3
003C468F 2019-02-19 22:12:18 20.9 27 18.3
003C468F 2019-02-19 21:40:45 20.9 27 18.2
003C468F 2019-02-19 21:09:14 20.9 27 18.1
003C468F 2019-02-19 20:37:40 20.9 27 18.2
003C468F 2019-02-19 20:06:08 20.9 27 18.2
003C468F 2019-02-19 19:34:36 20.9 27 18.1
003C468F 2019-02-19 19:03:02 21 27 18.2
003C468F 2019-02-19 18:31:34 21 27 18.2
003C468F 2019-02-19 18:00:01 21.1 27 18.1
003C468F 2019-02-19 17:28:27 21.1 27 18.1
003C468F 2019-02-19 16:25:25 21.1 27 18.1
003C468F 2019-02-19 15:22:21 21.1 27 18
003C468F 2019-02-19 14:50:52 21.1 27 17.8
003C468F 2019-02-19 14:19:17 21.1 27 17.8
003C468F 2019-02-19 13:47:45 21 27 17.9
003C468F 2019-02-19 13:16:12 21 27 18
003C468F 2019-02-19 12:44:39 21 27 18
003C468F 2019-02-19 12:13:07 21 27 18.1
003C468F 2019-02-19 11:41:34 21 27 17.8
003C468F 2019-02-19 11:10:01 21 26 17.7
003C468F 2019-02-19 10:38:29 20.9 26 13.2
003C468F 2019-02-19 10:06:59 20.9 26 13.2
003C468F 2019-02-19 09:03:59 20.8 26 13.2
003C468F 2019-02-19 08:32:28 20.8 25 13.4
003C468F 2019-02-19 08:00:16 20.8 25 13.1
003C468F 2019-02-19 07:28:45 20.8 25 13.1
003C468F 2019-02-19 06:57:18 20.8 25 13
003C468F 2019-02-19 06:25:43 20.7 25 13
003C468F 2019-02-19 05:54:12 20.8 25 12.9
003C468F 2019-02-19 05:22:41 20.8 25 13
003C468F 2019-02-19 04:51:11 20.8 25 17.7
003C468F 2019-02-19 04:19:39 20.8 24 17.6
003C468F 2019-02-19 03:48:08 20.8 24 17.6
003C468F 2019-02-19 03:16:36 20.7 24 17.7
003C468F 2019-02-19 02:45:07 20.8 24 17.7
003C468F 2019-02-19 02:13:35 20.8 24 18
003C468F 2019-02-19 01:42:08 20.8 24 18.4
003C468F 2019-02-19 01:10:35 20.8 24 18.4
003C468F 2019-02-19 00:39:04 20.8 24 18.4
003C468F 2019-02-19 00:07:34 20.8 23 18.8
003C468F 2019-02-18 23:36:03 20.8 23 19
003C468F 2019-02-18 23:04:33 20.8 23 19
003C468F 2019-02-18 22:33:01 20.8 23 19.1
003C468F 2019-02-18 22:01:30 20.8 23 20.8
003C468F 2019-02-18 21:30:00 20.8 23 20.9
003C468F 2019-02-18 20:58:27 20.8 23 21
003C468F 2019-02-18 20:26:56 20.8 23 21.2
003C468F 2019-02-18 19:55:25 20.8 22 21.5
003C468F 2019-02-18 19:23:54 20.9 22 21.6
003C468F 2019-02-18 18:52:22 20.8 22 21.8
003C468F 2019-02-18 18:20:52 20.9 22 21.9
003C468F 2019-02-18 17:49:21 20.9 22 22.1
003C468F 2019-02-18 17:17:51 21 22 22.2
003C468F 2019-02-18 16:46:19 21 22 22.3
003C468F 2019-02-18 16:14:50 21 21 22.6
003C468F 2019-02-18 15:11:50 21 21 21.8
003C468F 2019-02-18 14:40:18 21.1 21 21.9
003C468F 2019-02-18 14:08:46 21.1 21 22.2
003C468F 2019-02-18 13:37:15 21.2 20 22.3
003C468F 2019-02-18 13:05:43 21.3 20 22.4
003C468F 2019-02-18 12:34:13 21.4 20 22.5
003C468F 2019-02-18 12:02:43 21.4 20 22.5
003C468F 2019-02-18 11:31:13 21.3 20 22.6
003C468F 2019-02-18 10:59:39 21.3 19 22.8
003C468F 2019-02-18 10:28:08 21.3 19 22.9
003C468F 2019-02-18 09:56:35 21.2 19 23.6
003C468F 2019-02-18 09:25:04 21.2 19 23.7
003C468F 2019-02-18 08:53:31 21.2 19 23.9
003C468F 2019-02-18 08:22:00 21.1 19 23.3
003C468F 2019-02-18 07:50:28 21.1 19 23.5
003C468F 2019-02-18 07:18:56 21 19 23.6
003C468F 2019-02-18 06:47:24 21 19 23.6
003C468F 2019-02-18 06:15:52 21 19 23.5
003C468F 2019-02-18 05:43:38 21 19 23.7
003C468F 2019-02-18 05:12:08 21 19 23.8
003C468F 2019-02-18 04:40:37 21 19 23.9
003C468F 2019-02-18 04:09:07 21 19 24.1
003C468F 2019-02-18 03:37:36 21 19 24.2
003C468F 2019-02-18 03:06:07 21 19 24.2
003C468F 2019-02-18 02:34:37 21.1 19 24.2
003C468F 2019-02-18 02:03:07 21.1 19 24.2
003C468F 2019-02-18 01:31:35 21.1 19 24.3
003C468F 2019-02-18 01:00:05 21.1 19 24.3
003C468F 2019-02-18 00:28:35 21.1 19 24.4
003C468F 2019-02-17 23:57:02 21.1 20 24.3
003C468F 2019-02-17 23:25:33 21.1 20 24.4
003C468F 2019-02-17 22:54:03 21.1 20 24.4
003C468F 2019-02-17 22:22:34 21.1 20 24.5
003C468F 2019-02-17 21:51:01 21.1 20 24.5
003C468F 2019-02-17 21:19:29 21.1 20 24.5
003C468F 2019-02-17 20:47:58 21.1 20 24
003C468F 2019-02-17 20:16:27 21.1 20 24.1
003C468F 2019-02-17 19:44:56 21.1 20 24.1
003C468F 2019-02-17 19:13:24 21.1 20 24
003C468F 2019-02-17 18:41:51 21.1 20 23.9
003C468F 2019-02-17 18:10:20 21.1 20 23.9
003C468F 2019-02-17 17:38:47 21.1 20 23.9
003C468F 2019-02-17 17:07:15 21.2 20 23.9
003C468F 2019-02-17 16:35:44 21.2 20 24
003C468F 2019-02-17 16:04:11 21.1 20 23.9
003C468F 2019-02-17 15:32:41 21.2 21 24
003C468F 2019-02-17 15:01:10 21.2 21 23.7
003C468F 2019-02-17 14:29:36 21.2 21 23.8
003C468F 2019-02-17 13:58:03 21.2 21 23.8
003C468F 2019-02-17 13:26:32 21.2 21 23.8
003C468F 2019-02-17 12:55:00 21.2 21 23.9
003C468F 2019-02-17 12:23:28 21.2 21 23.8
003C468F 2019-02-17 11:51:55 21.2 21 23.7
003C468F 2019-02-17 11:20:24 21.1 21 23.7
003C468F 2019-02-17 10:48:52 21.1 21 23.8
003C468F 2019-02-17 10:17:21 21.1 21 23.9
003C468F 2019-02-17 09:45:50 21.1 22 24
003C468F 2019-02-17 09:14:19 21.1 22 23.9
003C468F 2019-02-17 08:42:48 21.1 22 24
003C468F 2019-02-17 08:11:16 21.1 22 23.9
003C468F 2019-02-17 07:39:44 21.1 22 23.9
003C468F 2019-02-17 07:08:12 21.2 22 23.8
003C468F 2019-02-17 06:36:40 21.2 22 23.8
003C468F 2019-02-17 06:05:09 21.2 23 23.8
003C468F 2019-02-17 05:33:38 21.2 23 23.9
003C468F 2019-02-17 05:02:04 21.2 23 24
003C468F 2019-02-17 04:30:31 21.2 23 24
003C468F 2019-02-17 03:58:59 21.2 23 24
003C468F 2019-02-17 03:26:46 21.2 24 24
003C468F 2019-02-17 02:55:13 21.2 24 24
003C468F 2019-02-17 02:23:40 21.2 24 23.9
003C468F 2019-02-17 01:52:06 21.2 24 23.9
003C468F 2019-02-17 01:20:34 21.2 24 23.9
003C468F 2019-02-17 00:49:02 21.2 24 23.7
003C468F 2019-02-17 00:17:31 21.2 24 23.8
003C468F 2019-02-16 23:46:00 21.2 25 23.7
003C468F 2019-02-16 23:14:27 21.2 25 23.6
003C468F 2019-02-16 22:42:55 21.2 25 23.7
003C468F 2019-02-16 22:11:23 21.3 25 23.8
003C468F 2019-02-16 21:39:52 21.3 25 23.9
003C468F 2019-02-16 21:08:21 21.2 25 23.7
003C468F 2019-02-16 20:36:50 21.3 25 23.8
003C468F 2019-02-16 20:05:19 21.3 25 23.8
003C468F 2019-02-16 19:33:47 21.2 25 23.7
003C468F 2019-02-16 19:02:16 21.2 25 23.9
003C468F 2019-02-16 18:30:44 21.2 25 23.9
003C468F 2019-02-16 17:59:14 21.3 25 24
003C468F 2019-02-16 17:27:42 21.3 25 24.1
003C468F 2019-02-16 16:56:09 21.4 25 23.9
003C468F 2019-02-16 16:24:35 21.4 25 23.7
003C468F 2019-02-16 15:53:01 21.4 25 23.7
003C468F 2019-02-16 15:21:28 21.4 25 23.7
003C468F 2019-02-16 14:49:54 21.4 25 24.3
003C468F 2019-02-16 14:18:20 21.4 25 24.8
003C468F 2019-02-16 13:46:47 21.3 25 24.8
003C468F 2019-02-16 13:15:12 21.3 25 24.8
003C468F 2019-02-16 12:43:37 21.3 25 24.8
003C468F 2019-02-16 12:12:04 21.3 25 24.8
003C468F 2019-02-16 11:40:31 21.3 25 24.9
003C468F 2019-02-16 11:08:56 21.3 25 24.9
003C468F 2019-02-16 10:37:21 21.2 25 24.9
003C468F 2019-02-16 10:05:47 21.2 25 25
003C468F 2019-02-16 09:34:14 21.2 25 25
003C468F 2019-02-16 09:02:40 21.2 25 25
003C468F 2019-02-16 08:31:06 21.2 25 24.9
003C468F 2019-02-16 07:59:32 21.2 26 25
003C468F 2019-02-16 07:27:56 21.3 26 25
003C468F 2019-02-16 06:56:23 21.3 26 24.8
003C468F 2019-02-16 06:24:48 21.3 26 24.9
003C468F 2019-02-16 05:53:15 21.2 26 24.7
003C468F 2019-02-16 05:21:41 21.2 26 24.6
003C468F 2019-02-16 04:50:07 21.3 26 24.6
003C468F 2019-02-16 04:18:32 21.3 26 24.6
003C468F 2019-02-16 03:46:58 21.3 26 24.8
003C468F 2019-02-16 03:15:23 21.3 26 24.8
003C468F 2019-02-16 02:43:49 21.3 26 24.7
003C468F 2019-02-16 02:12:15 21.3 26 24.7
003C468F 2019-02-16 01:40:41 21.3 26 24.2
003C468F 2019-02-16 01:08:25 21.3 26 23.7
003C468F 2019-02-16 00:36:53 21.4 26 23.8
003C468F 2019-02-16 00:05:21 21.4 26 23.9
003C468F 2019-02-15 23:33:50 21.4 26 23.9
003C468F 2019-02-15 23:02:17 21.4 26 23.9
003C468F 2019-02-15 22:30:45 21.5 26 23.9
003C468F 2019-02-15 21:59:13 21.5 26 23.7
003C468F 2019-02-15 21:27:40 21.5 26 23.6
003C468F 2019-02-15 20:56:06 21.6 25 23.7
003C468F 2019-02-15 20:24:32 21.6 25 23.7
003C468F 2019-02-15 19:52:57 21.6 25 23.7
003C468F 2019-02-15 19:21:22 21.7 25 23.8
003C468F 2019-02-15 18:49:47 21.7 25 23.6
003C468F 2019-02-15 18:18:13 21.7 25 23.6
003C468F 2019-02-15 17:46:42 21.8 25 23.6
003C468F 2019-02-15 17:15:04 21.8 25 23.6
003C468F 2019-02-15 16:43:30 21.7 25 23.8
003C468F 2019-02-15 16:11:56 21.7 25 23.9
003C468F 2019-02-15 15:40:23 21.7 24 23.8
003C468F 2019-02-15 15:08:48 21.7 24 24
003C468F 2019-02-15 14:37:14 21.7 24 24.2
003C468F 2019-02-15 14:05:40 21.7 24 24.2
003C468F 2019-02-15 13:34:05 21.7 24 24.1
003C468F 2019-02-15 13:02:34 21.7 24 24.6
003C468F 2019-02-15 12:30:57 21.6 24 24.5
003C468F 2019-02-15 11:59:23 21.6 25 24.6
003C468F 2019-02-15 11:27:50 21.6 25 24.5
003C468F 2019-02-15 10:56:16 21.6 25 24.5
003C468F 2019-02-15 10:24:42 21.5 25 24.4
003C468F 2019-02-15 09:53:08 21.5 25 24.5
003C468F 2019-02-15 09:21:36 21.5 25 24.4
003C468F 2019-02-15 08:50:03 21.4 25 24.5
003C468F 2019-02-15 08:18:30 21.4 25 24.7
003C468F 2019-02-15 07:46:57 21.3 25 24.7
003C468F 2019-02-15 07:15:24 21.4 26 24.7
003C468F 2019-02-15 06:43:50 21.4 25 24.6
003C468F 2019-02-15 06:12:18 21.4 26 24.6
003C468F 2019-02-15 05:40:46 21.4 26 24.5
003C468F 2019-02-15 05:09:14 21.4 26 24.5
003C468F 2019-02-15 04:37:42 21.4 26 24.5
003C468F 2019-02-15 04:06:10 21.4 26 24.5
003C468F 2019-02-15 03:34:37 21.4 26 24.3
003C468F 2019-02-15 03:03:04 21.4 26 24.7
003C468F 2019-02-15 02:31:31 21.4 26 24.7
003C468F 2019-02-15 01:59:57 21.4 26 24.4
003C468F 2019-02-15 01:28:23 21.4 26 24.1
003C468F 2019-02-15 00:56:49 21.5 26 24.1
003C468F 2019-02-15 00:25:15 21.5 26 24.1
003C468F 2019-02-14 23:53:41 21.4 26 23.5
003C468F 2019-02-14 23:22:08 21.5 25 23.5
003C468F 2019-02-14 22:49:53 21.5 25 23.4
003C468F 2019-02-14 22:18:20 21.5 25 23.1
003C468F 2019-02-14 21:46:47 21.5 25 23
003C468F 2019-02-14 21:15:14 21.6 25 22.9
003C468F 2019-02-14 20:43:41 21.6 25 22.8
003C468F 2019-02-14 20:12:08 21.6 25 22.8
003C468F 2019-02-14 19:40:34 21.7 25 22.8
003C468F 2019-02-14 19:09:00 21.8 25 22.5
003C468F 2019-02-14 18:37:27 21.8 24 22.1
003C468F 2019-02-14 18:05:53 21.8 24 22.1
003C468F 2019-02-14 17:34:21 21.9 24 22.1
003C468F 2019-02-14 17:02:47 21.9 24 22
003C468F 2019-02-14 16:31:15 21.9 25 22.1
003C468F 2019-02-14 15:59:42 21.8 24 22.1
003C468F 2019-02-14 15:28:10 21.8 24 22.3
003C468F 2019-02-14 14:56:36 21.7 24 22.2
003C468F 2019-02-14 14:25:02 21.6 24 22.3
003C468F 2019-02-14 13:53:28 21.6 24 21.2
003C468F 2019-02-14 13:21:54 21.5 24 21.4
003C468F 2019-02-14 12:50:19 21.4 24 21.3
003C468F 2019-02-14 12:18:44 21.4 24 21.5
003C468F 2019-02-14 11:47:11 21.3 24 21.6
003C468F 2019-02-14 11:15:34 21.3 24 21.6
003C468F 2019-02-14 10:43:58 21.1 25 21.7
003C468F 2019-02-14 10:12:24 21 24 21.5
003C468F 2019-02-14 09:40:48 21 24 21.5
003C468F 2019-02-14 09:09:13 20.9 25 21.6
003C468F 2019-02-14 08:37:38 20.8 24 22.4
003C468F 2019-02-14 08:06:03 20.8 25 22.5
003C468F 2019-02-14 07:34:32 20.8 25 22.4
003C468F 2019-02-14 07:02:56 20.8 26 22.4
003C468F 2019-02-14 06:31:22 20.9 26 22.4
003C468F 2019-02-14 05:59:46 20.9 26 22.4
003C468F 2019-02-14 05:28:12 20.9 26 22.5
003C468F 2019-02-14 04:56:36 20.9 26 22.4
003C468F 2019-02-14 04:25:02 20.9 26 22.4
003C468F 2019-02-14 03:53:27 20.9 26 22.4
003C468F 2019-02-14 03:21:54 20.9 25 22.3
003C468F 2019-02-14 02:50:20 20.9 25 22.2
003C468F 2019-02-14 02:18:46 20.9 25 22.1
003C468F 2019-02-14 01:47:12 20.9 25 22.1
003C468F 2019-02-14 01:15:38 20.9 25 22.1
003C468F 2019-02-14 00:44:05 20.9 25 22.2
003C468F 2019-02-14 00:12:33 20.9 25 22.2
003C468F 2019-02-13 23:40:57 20.9 25 22.2
003C468F 2019-02-13 23:09:24 21 25 22.2
003C468F 2019-02-13 22:37:51 21 25 22
003C468F 2019-02-13 22:06:17 21 25 21.8
003C468F 2019-02-13 21:34:43 21.1 25 21.6
003C468F 2019-02-13 21:03:11 21.2 25 21.8
003C468F 2019-02-13 20:30:55 21.2 25 22.7
003C468F 2019-02-13 19:59:21 21.3 25 22.8
003C468F 2019-02-13 19:27:47 21.4 26 21.9
003C468F 2019-02-13 18:56:14 21.4 26 21.8
003C468F 2019-02-13 18:24:43 21.6 26 21.9
003C468F 2019-02-13 17:53:08 21.5 26 21.9
003C468F 2019-02-13 17:21:35 21.5 26 21.9
003C468F 2019-02-13 16:50:02 21.5 27 21.8
003C468F 2019-02-13 16:18:30 21.4 26 22
003C468F 2019-02-13 15:46:58 21.3 26 21.9
003C468F 2019-02-13 15:15:25 21.3 25 22.3
003C468F 2019-02-13 14:43:54 21.2 25 22.2
003C468F 2019-02-13 14:12:22 21.2 24 22.2
003C468F 2019-02-13 13:40:49 21.2 25 22.3
003C468F 2019-02-13 13:09:16 21.2 25 22.5
003C468F 2019-02-13 12:37:43 21.2 25 22.5
003C468F 2019-02-13 12:06:11 21.2 25 22.5
003C468F 2019-02-13 11:34:39 21.1 24 22.6
003C468F 2019-02-13 11:03:06 21 24 22.6
003C468F 2019-02-13 10:31:34 21 24 22.7
003C468F 2019-02-13 10:00:01 20.9 23 22.7
003C468F 2019-02-13 09:28:28 20.9 23 22.8
003C468F 2019-02-13 08:56:55 20.9 22 22.8
003C468F 2019-02-13 08:25:23 20.8 21 23.6
003C468F 2019-02-13 07:53:51 20.8 20 23.5
003C468F 2019-02-13 07:22:18 20.8 20 22.7
003C468F 2019-02-13 06:50:45 20.8 19 22.5
003C468F 2019-02-13 06:19:14 20.8 19 22.5
003C468F 2019-02-13 05:47:42 20.8 19 22.6
003C468F 2019-02-13 05:16:10 20.8 19 22.5
003C468F 2019-02-13 04:44:37 20.8 19 22.5
003C468F 2019-02-13 04:13:02 20.9 19 22.5
003C468F 2019-02-13 03:41:29 20.9 19 22.4
003C468F 2019-02-13 03:09:57 20.9 19 22.2
003C468F 2019-02-13 02:38:25 20.9 19 22.1
003C468F 2019-02-13 02:06:51 20.9 19 21.6
003C468F 2019-02-13 01:35:20 20.9 19 21.4
003C468F 2019-02-13 01:03:48 20.9 19 21.3
003C468F 2019-02-13 00:32:15 21 19 21.2
003C468F 2019-02-13 00:00:43 21 20 22.1
003C468F 2019-02-12 23:29:10 21 20 22.1
003C468F 2019-02-12 22:57:38 21 20 22.8
003C468F 2019-02-12 22:26:05 21.1 20 22.7
003C468F 2019-02-12 21:54:34 21.2 20 22.6
003C468F 2019-02-12 21:23:02 21.2 21 22.5
003C468F 2019-02-12 20:51:29 21.3 21 22.7
003C468F 2019-02-12 20:19:57 21.4 21 22.7
003C468F 2019-02-12 19:48:25 21.5 21 23
003C468F 2019-02-12 19:16:49 21.5 20 22.1
003C468F 2019-02-12 18:45:16 21.6 20 22.1
003C468F 2019-02-12 18:13:01 21.6 19 22.2
003C468F 2019-02-12 17:41:30 21.6 20 22.2
003C468F 2019-02-12 17:09:54 21.7 19 22.4
003C468F 2019-02-12 16:06:46 21.9 19 22.5
003C468F 2019-02-12 15:35:12 21.9 19 22.5
003C468F 2019-02-12 15:03:38 21.7 19 22.6
003C468F 2019-02-12 14:32:03 21.5 20 22.6
003C468F 2019-02-12 14:00:31 21.4 20 22.7
003C468F 2019-02-12 13:28:55 21.4 20 22.9
003C468F 2019-02-12 12:57:21 21.4 20 23.1
003C468F 2019-02-12 12:25:47 21.4 21 23.3
003C468F 2019-02-12 11:54:12 21.3 21 23.4
003C468F 2019-02-12 11:22:38 21.4 22 23.6
003C468F 2019-02-12 10:51:04 21.4 22 23.7
003C468F 2019-02-12 10:19:30 21.2 23 23.1
003C468F 2019-02-12 09:47:56 21.1 23 23.1
003C468F 2019-02-12 09:16:21 21 24 22.4
003C468F 2019-02-12 08:44:47 20.9 24 22.6
003C468F 2019-02-12 08:13:14 20.8 24 22.7
003C468F 2019-02-12 07:41:40 20.8 25 22.6
003C468F 2019-02-12 07:10:08 20.8 26 22.6
003C468F 2019-02-12 06:38:34 20.9 26 22.5
003C468F 2019-02-12 06:07:02 20.9 26 22.2
003C468F 2019-02-12 05:35:25 20.9 27 22.1
003C468F 2019-02-12 05:03:52 20.9 27 22.2
003C468F 2019-02-12 04:32:14 20.9 27 22.3
003C468F 2019-02-12 04:00:39 20.9 27 22.5
003C468F 2019-02-12 03:29:05 20.9 27 22.4
003C468F 2019-02-12 02:57:30 20.9 27 22.1
003C468F 2019-02-12 02:25:56 20.9 27 22.3
003C468F 2019-02-12 01:54:22 20.9 27 22.4
003C468F 2019-02-12 01:22:48 21 27 22.6
003C468F 2019-02-12 00:51:14 21 27 22.7
003C468F 2019-02-12 00:19:39 21 27 22.7
003C468F 2019-02-11 23:48:04 21 27 22.4
003C468F 2019-02-11 23:16:29 21.1 27 22.3
003C468F 2019-02-11 22:44:54 21.1 28 22.3
003C468F 2019-02-11 22:13:20 21.2 28 22
003C468F 2019-02-11 21:41:46 21.2 28 22
003C468F 2019-02-11 21:10:15 21.3 28 21.6
003C468F 2019-02-11 20:38:40 21.3 28 21.4
003C468F 2019-02-11 20:07:08 21.4 28 20.9
003C468F 2019-02-11 19:35:33 21.5 28 19.8
003C468F 2019-02-11 19:03:59 21.6 28 19.2
003C468F 2019-02-11 18:32:26 21.8 28 20
003C468F 2019-02-11 18:00:53 21.9 28 13.2
003C468F 2019-02-11 17:29:19 22 28 14.7
003C468F 2019-02-11 16:57:46 22.1 29 16.1
003C468F 2019-02-11 16:26:10 22.1 30 0